Weather History for Buffalo, MN

Change the Weather History Date:

Monday, March 25, 2013

  Actual Average (KSTC) Record (KSTC)
Temperature  
Mean Temperature 29 °F 34 °F  
Max Temperature 36 °F 44 °F 76 °F (1939)
Min Temperature 22 °F 24 °F -8 °F (1940)
Degree Days  
Heating Degree Days 36 31  
Month to date heating degree days 925  
Since 1 July heating degree days 7371  
Cooling Degree Days 0 0  
Month to date cooling degree days 0  
Year to date cooling degree days 0  
Moisture  
Dew Point 19 °F    
Average Humidity 64    
Maximum Humidity 77    
Minimum Humidity 47    
Precipitation  
Precipitation 0.00 in 0.06 in 0.93 in (1954)
Month to date precipitation 1.18  
Year to date precipitation 2.42  
Snow  
Snow 0.00 in 0.20 in 7.00 in (1954)
Month to date snowfall 7.4  
Since 1 July snowfall 41.6  
Snow Depth -    
Sea Level Pressure  
Sea Level Pressure 30.14 in    
Wind  
Wind Speed 8 mph (NW)    
Max Wind Speed 14 mph    
Max Gust Speed 20 mph    
Visibility 10 miles    
Events      
T = Trace of Precipitation, MM = Missing Value Source: NWS Daily Summary

Daily Weather History Graph

Daily Weather History Graph

Search for Another Location

Airport:

Trip Planner

Search our weather history database for the weather conditions in past years. The results will help you decide how hot, cold, wet, or windy it might be!

Date:

Astronomy

Mar. 25, 2013 Rise Set
Actual Time 7:08 AM CDT 7:34 PM CDT
Civil Twilight 6:39 AM CDT 8:04 PM CDT
Nautical Twilight 6:04 AM CDT 8:39 PM CDT
Astronomical Twilight 5:28 AM CDT 9:15 PM CDT
Moon 6:04 PM CDT (3/25) 5:56 AM CDT (3/25)
Length of Visible Light 13h 25m
Length of Day
12h 26m
Waxing Gibbous, 96% of the Moon is Illuminated
Mar 25
Waxing Gibbous
Mar 27
Full
Apr 2
Last Quarter
Apr 10
New
Apr 18
First Quarter

Hourly Weather History & Observations

Time (CDT) Temp. Windchill Dew Point Humidity Pressure Visibility Wind Dir Wind Speed Gust Speed Precip Events Conditions
12:14 AM 29.3 °F 20.8 °F 22.8 °F 77% 30.06 in 10.0 mi North 9.2 mph - N/A   Overcast
12:34 AM 29.3 °F 21.5 °F 22.1 °F 75% 30.06 in 10.0 mi NNE 8.1 mph - N/A   Overcast
12:55 AM 29.1 °F 22.1 °F 21.9 °F 74% 30.06 in 10.0 mi NNE 6.9 mph - N/A   Overcast
1:14 AM 28.2 °F 22.0 °F 20.3 °F 72% 30.07 in 10.0 mi North 5.8 mph - N/A   Mostly Cloudy
1:34 AM 27.9 °F 19.8 °F 20.3 °F 73% 30.07 in 10.0 mi North 8.1 mph - N/A   Scattered Clouds
1:55 AM 27.3 °F 19.9 °F 19.6 °F 73% 30.07 in 10.0 mi North 6.9 mph - N/A   Clear
2:14 AM 26.2 °F 20.7 °F 19.4 °F 75% 30.07 in 10.0 mi NNW 4.6 mph - N/A   Clear
2:34 AM 25.7 °F 19.0 °F 19.4 °F 77% 30.08 in 10.0 mi NNW 5.8 mph - N/A   Clear
2:55 AM 24.8 °F 20.5 °F 18.5 °F 77% 30.08 in 10.0 mi NNW 3.5 mph - N/A   Clear
3:14 AM 24.3 °F 19.9 °F 17.6 °F 76% 30.08 in 10.0 mi NNW 3.5 mph - N/A   Clear
3:34 AM 24.6 °F 17.7 °F 17.6 °F 75% 30.08 in 10.0 mi NW 5.8 mph - N/A   Clear
3:55 AM 25.3 °F 17.6 °F 18.1 °F 74% 30.07 in 10.0 mi NW 6.9 mph - N/A   Clear
4:15 AM 25.3 °F 16.7 °F 18.0 °F 74% 30.07 in 10.0 mi NNW 8.1 mph - N/A   Scattered Clouds
4:34 AM 25.5 °F 15.5 °F 17.8 °F 72% 30.07 in 10.0 mi NNW 10.4 mph - N/A   Mostly Cloudy
4:55 AM 25.3 °F 16.0 °F 17.6 °F 72% 30.08 in 10.0 mi NNW 9.2 mph - N/A   Scattered Clouds
5:15 AM 25.0 °F 14.8 °F 17.6 °F 74% 30.08 in 10.0 mi NNW 10.4 mph - N/A   Clear
5:34 AM 24.8 °F 14.6 °F 17.2 °F 73% 30.08 in 10.0 mi NNW 10.4 mph - N/A   Clear
5:55 AM 24.6 °F 14.4 °F 17.2 °F 74% 30.09 in 10.0 mi NNW 10.4 mph - N/A   Clear
6:15 AM 24.3 °F 13.9 °F 17.1 °F 74% 30.09 in 10.0 mi NNW 10.4 mph - N/A   Clear
6:34 AM 23.9 °F 13.5 °F 16.7 °F 74% 30.10 in 10.0 mi NNW 10.4 mph - N/A   Clear
6:55 AM 23.7 °F 12.6 °F 16.5 °F 74% 30.10 in 10.0 mi NNW 11.5 mph - N/A   Clear
7:15 AM 23.0 °F 13.9 °F 15.8 °F 74% 30.11 in 10.0 mi NNW 8.1 mph - N/A   Clear
7:34 AM 22.8 °F 13.6 °F 15.6 °F 74% 30.12 in 10.0 mi NNW 8.1 mph - N/A   Clear
7:55 AM 23.0 °F 13.1 °F 15.4 °F 73% 30.12 in 10.0 mi NNW 9.2 mph - N/A   Clear
8:15 AM 23.0 °F 13.1 °F 15.6 °F 73% 30.13 in 10.0 mi NW 9.2 mph - N/A   Clear
8:34 AM 23.7 °F 14.7 °F 15.8 °F 72% 30.13 in 10.0 mi NW 8.1 mph - N/A   Clear
8:55 AM 24.3 °F 14.6 °F 15.8 °F 70% 30.14 in 10.0 mi NNW 9.2 mph - N/A   Clear
9:15 AM 25.2 °F 16.5 °F 16.3 °F 69% 30.14 in 10.0 mi NW 8.1 mph 16.1 mph N/A   Clear
9:34 AM 25.9 °F 17.4 °F 16.5 °F 68% 30.14 in 10.0 mi NNW 8.1 mph - N/A   Clear
9:55 AM 27.1 °F 16.9 °F 16.7 °F 65% 30.15 in 10.0 mi NNW 11.5 mph - N/A   Clear
10:14 AM 27.5 °F 18.0 °F 16.7 °F 64% 30.16 in 10.0 mi NNW 10.4 mph - N/A   Clear
10:34 AM 28.4 °F 19.1 °F 16.9 °F 62% 30.16 in 10.0 mi NNW 10.4 mph - N/A   Clear
10:55 AM 29.3 °F 19.6 °F 17.4 °F 61% 30.16 in 10.0 mi NW 11.5 mph - N/A   Clear
11:14 AM 30.0 °F 21.1 °F 17.6 °F 60% 30.16 in 10.0 mi NNW 10.4 mph - N/A   Clear
11:34 AM 31.5 °F 22.3 °F 17.4 °F 56% 30.16 in 10.0 mi NNW 11.5 mph 16.1 mph N/A   Clear
11:55 AM 32.0 °F 23.6 °F 18.3 °F 57% 30.17 in 10.0 mi NNW 10.4 mph 16.1 mph N/A   Clear
12:14 PM 32.2 °F 23.8 °F 18.5 °F 57% 30.16 in 10.0 mi NNW 10.4 mph - N/A   Clear
12:34 PM 33.6 °F 26.8 °F 19.0 °F 55% 30.16 in 10.0 mi NNW 8.1 mph - N/A   Clear
12:55 PM 33.8 °F 25.3 °F 19.2 °F 55% 30.16 in 10.0 mi NNW 11.5 mph - N/A   Clear
1:14 PM 34.7 °F 28.1 °F 18.7 °F 52% 30.16 in 10.0 mi NNW 8.1 mph - N/A   Clear
1:34 PM 35.6 °F 27.5 °F 18.3 °F 50% 30.16 in 10.0 mi NNW 11.5 mph 17.3 mph N/A   Clear
1:55 PM 35.2 °F 27.6 °F 19.4 °F 53% 30.16 in 10.0 mi NW 10.4 mph 16.1 mph N/A   Clear
2:14 PM 35.6 °F 26.6 °F 18.3 °F 50% 30.16 in 10.0 mi NNW 13.8 mph 19.6 mph N/A   Clear
2:34 PM 35.6 °F 27.5 °F 18.3 °F 50% 30.16 in 10.0 mi NNW 11.5 mph 18.4 mph N/A   Clear
2:55 PM 35.6 °F 27.5 °F 18.7 °F 50% 30.15 in 10.0 mi NNW 11.5 mph 18.4 mph N/A   Clear
3:14 PM 35.6 °F 27.1 °F 18.7 °F 50% 30.15 in 10.0 mi NNW 12.7 mph 18.4 mph N/A   Clear
3:34 PM 35.8 °F 27.8 °F 18.5 °F 50% 30.15 in 10.0 mi NNW 11.5 mph 17.3 mph N/A   Clear
3:55 PM 35.8 °F 28.3 °F 18.5 °F 50% 30.15 in 10.0 mi NW 10.4 mph 18.4 mph N/A   Clear
4:14 PM 36.1 °F 29.3 °F 17.8 °F 47% 30.15 in 10.0 mi NNW 9.2 mph 16.1 mph N/A   Clear
4:34 PM 35.8 °F 28.8 °F 18.1 °F 49% 30.16 in 10.0 mi NW 9.2 mph - N/A   Clear
4:55 PM 35.8 °F 28.8 °F 18.5 °F 50% 30.16 in 10.0 mi NNW 9.2 mph - N/A   Clear
5:14 PM 35.6 °F 27.5 °F 18.3 °F 50% 30.16 in 10.0 mi NW 11.5 mph - N/A   Clear
5:34 PM 35.6 °F 29.2 °F 18.5 °F 50% 30.17 in 10.0 mi NW 8.1 mph - N/A   Clear
5:55 PM 35.2 °F 27.6 °F 18.3 °F 50% 30.17 in 10.0 mi NW 10.4 mph - N/A   Clear
6:14 PM 34.9 °F 27.7 °F 18.3 °F 51% 30.18 in 10.0 mi NW 9.2 mph - N/A   Clear
6:34 PM 34.3 °F 27.7 °F 18.3 °F 52% 30.19 in 10.0 mi NNW 8.1 mph - N/A   Clear
6:55 PM 33.8 °F 28.6 °F 18.3 °F 53% 30.19 in 10.0 mi NW 5.8 mph - N/A   Clear
7:14 PM 33.6 °F 27.5 °F 18.1 °F 53% 30.20 in 10.0 mi NW 6.9 mph - N/A   Clear
7:34 PM 32.0 °F 27.5 °F 18.5 °F 58% 30.20 in 10.0 mi NW 4.6 mph - N/A   Clear
7:55 PM 31.8 °F 27.3 °F 18.3 °F 57% 30.21 in 10.0 mi WNW 4.6 mph - N/A   Clear
8:14 PM 31.6 °F 27.0 °F 18.5 °F 58% 30.21 in 10.0 mi WNW 4.6 mph - N/A   Clear
8:34 PM 31.5 °F 26.8 °F 18.5 °F 59% 30.21 in 10.0 mi WNW 4.6 mph - N/A   Scattered Clouds
8:55 PM 31.8 °F 28.5 °F 18.5 °F 58% 30.21 in 10.0 mi West 3.5 mph - N/A   Overcast
9:14 PM 30.4 °F 24.5 °F 18.5 °F 61% 30.21 in 10.0 mi West 5.8 mph - N/A   Mostly Cloudy
9:34 PM 30.2 °F 22.6 °F 20.8 °F 68% 30.22 in 10.0 mi West 8.1 mph - N/A   Overcast
9:55 PM 30.2 °F 22.6 °F 21.9 °F 71% 30.22 in 10.0 mi WNW 8.1 mph - N/A   Overcast
10:14 PM 30.2 °F 21.9 °F 22.1 °F 72% 30.22 in 10.0 mi WNW 9.2 mph - N/A   Overcast
10:34 PM 29.8 °F 22.2 °F 22.1 °F 73% 30.22 in 10.0 mi WNW 8.1 mph - N/A   Overcast
10:55 PM 29.3 °F 20.2 °F 22.1 °F 75% 30.23 in 10.0 mi WNW 10.4 mph - N/A   Overcast
11:14 PM 29.1 °F 20.0 °F 22.1 °F 75% 30.23 in 10.0 mi WNW 10.4 mph - N/A   Overcast
11:34 PM 28.9 °F 20.4 °F 21.7 °F 74% 30.23 in 10.0 mi WNW 9.2 mph - N/A   Overcast
11:54 PM 28.4 °F 19.7 °F 21.2 °F 74% 30.23 in 10.0 mi WNW 9.2 mph - N/A   Overcast